FW1683 Weather Reports


Display with metric or nautical units.
time (UTC)temp
F
wind
direction
speed
MPH
gust
MPH
rain 1hr
in
rain 24hr
in
rain mn
in
humidity
%
barometer
mb
20260504183008 68 46 12.0 19.0 0.00 0.00 0.00 75 1009.7
20260504182008 69 48 9.0 15.0 0.00 0.00 0.00 75 1009.5
20260504181018 69 55 13.0 19.0 0.00 0.00 0.00 74 1009.5
20260504180025 70 50 11.0 17.0 0.00 0.00 0.00 70 1009.4
20260504174011 72 84 8.0 12.0 0.00 0.00 0.00 65 1009.2
20260504173015 72 99 6.0 10.0 0.00 0.00 0.00 65 1009.1
20260504172007 72 98 8.0 14.0 0.00 0.00 0.00 64 1009.0
20260504171008 72 97 8.0 12.0 0.00 0.00 0.00 63 1009.0
20260504141009 73 108 10.0 16.0 0.00 0.00 0.00 65 1009.6
20260504081008 68 218 1.0 3.0 0.00 0.00 0.00 71 1012.2
20260504050009 64 355 3.0 4.0 0.00 0.00 0.00 81 1011.9
20260504045008 64 348 2.0 3.0 0.00 0.00 0.00 81 1011.9
20260504044008 64 340 3.0 5.0 0.00 0.00 0.00 81 1011.9
20260504043009 64 315 1.0 3.0 0.00 0.00 0.00 81 1011.9
20260504041007 64 198 2.0 4.0 0.00 0.00 0.00 81 1012.1
20260504040022 64 180 1.0 2.0 0.00 0.00 0.00 81 1012.1
20260504034008 64 180 1.0 2.0 0.00 0.00 0.00 81 1012.4
20260504033028 64 180 1.0 2.0 0.00 0.00 0.00 81 1012.5
20260504031008 64 212 1.0 2.0 0.00 0.00 0.00 79 1012.7
20260504030020 64 85 1.0 2.0 0.00 0.00 0.00 79 1012.8
20260504024010 64 44 2.0 3.0 0.00 0.00 0.00 80 1012.9
20260504023012 65 28 1.0 3.0 0.00 0.00 0.00 80 1012.8
20260504021008 64 45 1.0 2.0 0.00 0.00 0.00 79 1012.8
20260504020009 64 23 2.0 3.0 0.00 0.00 0.00 78 1012.8
20260504015008 64 358 2.0 4.0 0.00 0.00 0.00 78 1012.7
20260504014022 64 6 2.0 3.0 0.00 0.00 0.00 79 1012.7
20260504013010 64 351 2.0 4.0 0.00 0.00 0.00 79 1012.7
20260504012010 64 347 2.0 4.0 0.00 0.00 0.00 79 1012.9
20260504011009 64 349 2.0 3.0 0.00 0.00 0.00 80 1012.8
20260504005008 64 283 2.0 4.0 0.00 0.00 0.00 82 1012.8
20260504003026 64 285 1.0 2.0 0.00 0.00 0.00 82 1012.9
20260504001008 65 225 1.0 2.0 0.00 0.00 0.00 82 1013.2
20260504000011 64 225 1.0 2.0 0.00 0.00 0.00 82 1013.4
20260503234011 64 225 2.0 3.0 0.00 0.00 0.00 83 1013.5
20260503232009 64 225 2.0 3.0 0.00 0.00 0.00 83 1013.6
20260503231010 64 225 2.0 3.0 0.00 0.00 0.00 83 1013.6
20260503230008 64 225 2.0 3.0 0.00 0.00 0.00 82 1013.6
20260503225008 64 225 2.0 3.0 0.00 0.00 0.00 82 1013.6
20260503224010 64 222 1.0 3.0 0.00 0.00 0.00 81 1013.6
20260503223019 65 97 1.0 2.0 0.00 0.00 0.00 81 1013.6
20260503222007 65 90 0.0 1.0 0.00 0.00 0.00 80 1013.6
20260503221008 65 131 1.0 2.0 0.00 0.00 0.00 80 1013.6
20260503220019 65 97 2.0 3.0 0.00 0.00 0.00 80 1013.7
20260503215007 65 129 2.0 4.0 0.00 0.00 0.00 81 1013.9
20260503214008 65 137 3.0 5.0 0.00 0.00 0.00 81 1013.9
20260503213012 65 142 3.0 6.0 0.00 0.00 0.00 81 1013.9
20260503212010 65 189 2.0 4.0 0.00 0.00 0.00 80 1014.1
20260503210015 65 164 3.0 4.0 0.00 0.00 0.00 81 1014.0
20260503205010 65 134 3.0 4.0 0.00 0.00 0.00 81 1013.7
20260503204011 65 128 3.0 5.0 0.00 0.00 0.00 80 1013.6
20260503203025 65 129 4.0 6.0 0.00 0.00 0.00 80 1013.5
20260503202007 65 141 3.0 5.0 0.00 0.00 0.00 79 1013.2
20260503201019 65 125 4.0 6.0 0.00 0.00 0.00 79 1013.1
20260503195010 66 119 3.0 5.0 0.00 0.00 0.00 78 1013.0
20260503194008 66 85 3.0 4.0 0.00 0.00 0.00 78 1013.0
20260503193025 65 91 3.0 5.0 0.00 0.00 0.00 77 1012.7
20260503192008 66 100 4.0 6.0 0.00 0.00 0.00 77 1012.6
20260503191007 66 96 3.0 5.0 0.00 0.00 0.00 76 1012.8
20260503190010 66 88 4.0 6.0 0.00 0.00 0.00 75 1012.8
20260503185008 66 81 6.0 8.0 0.00 0.00 0.00 76 1012.8
20260503184009 66 81 5.0 7.0 0.00 0.00 0.00 74 1012.6